Location: Boiro
(42.6475°N, 8.8834°W)
Time: 17:12:14
(UTC+01:00)

Explorer 11/Cluster Stage 4 - Pass Details

Date: 07 December 2021
Orbit: 467 x 1255 km, 28.8° (Epoch: 23 January)

Event Time Altitude Azimuth Distance (km) Brightness Sun altitude
Exits shadow 07:22:07 - 238° (WSW) 3,243 9.3 -16.0°
Reaches altitude 10° 07:23:39 10° 228° (SW) 3,024 9.3 -15.7°
Maximum altitude 07:26:54 13° 203° (SSW) 2,866 9.4 -15.1°
Drops below altitude 10° 07:30:18 10° 177° (S) 3,170 9.9 -14.5°
Sets 07:35:12 0° 153° (SSE) 4,182 11.0 -13.7°
